Sarnia, Ontario

6:16 PM EDT on October 18, 2017 (GMT -0400)
Sarnia (Hadfield)

Weather History for CYZR - March, 2014

Change the Weather History Date:

Thursday, March 27, 2014

  Actual Average Record
Temperature  
Mean Temperature 28 °F -  
Max Temperature 39 °F 50 °F 78 °F (1989)
Min Temperature 18 °F 34 °F 9 °F (2017)
Degree Days  
Heating Degree Days 36    
Moisture  
Dew Point 26 °F    
Average Humidity 78    
Maximum Humidity 93    
Minimum Humidity 11    
Precipitation  
Precipitation 0.04 in 0.09 in - ()
Sea Level Pressure  
Sea Level Pressure 29.97 in    
Wind  
Wind Speed 13 mph ()    
Max Wind Speed 21 mph    
Max Gust Speed 28 mph    
Visibility 7.8 miles    
Events Rain , Snow    
Averages and records for this station are not official NWS values.
T = Trace of Precipitation, MM = Missing Value Source: Averaged Metar Reports

Daily Weather History Graph

Daily Weather History Graph

Search for Another Location

Airport or City:

Trip Planner

Search our weather history database for the weather conditions in past years. The results will help you decide how hot, cold, wet, or windy it might be!

Date:

Astronomy

Mar. 27, 2014 Rise Set
Actual Time 7:20 AM EDT 7:49 PM EDT
Civil Twilight 6:51 AM EDT 8:18 PM EDT
Nautical Twilight 6:18 AM EDT 8:51 PM EDT
Astronomical Twilight 5:43 AM EDT 9:26 PM EDT
Moon 5:15 AM EDT (3/27) 4:31 PM EDT (3/27)
Length of Visible Light 13h 26m
Length of Day
12h 29m
Waning Crescent, 13% of the Moon is Illuminated
Mar 27
Waning Crescent
Mar 30
New
Apr 7
First Quarter
Apr 15
Full
Apr 22
Last Quarter

Hourly Weather History & Observations

Time (EDT) Temp. Windchill Dew Point Humidity Pressure Visibility Wind Dir Wind Speed Gust Speed Precip Events Conditions
12:00 AM 24.8 °F 16.1 °F 19.4 °F 80% 30.26 in 9.0 mi South 8.1 mph - N/A   Overcast
1:00 AM 26.6 °F 16.8 °F 17.6 °F 69% 30.22 in 9.0 mi South 10.4 mph - N/A   Overcast
2:00 AM 20 °F - 14 °F 67% 29.42 in - NNW 10.4 mph - -  
2:00 AM 26.6 °F 16.2 °F 19.4 °F 74% 30.21 in 9.0 mi South 11.5 mph - N/A   Overcast
3:00 AM 26.6 °F 14.3 °F 19.4 °F 74% 30.20 in 9.0 mi SSE 16.1 mph - N/A   Overcast
4:00 AM 26.6 °F 16.8 °F 19.4 °F 74% 30.18 in 9.0 mi SSE 10.4 mph - N/A   Overcast
5:00 AM 26.6 °F 16.2 °F 19.4 °F 74% 30.17 in 9.0 mi South 11.5 mph - N/A   Overcast
6:00 AM 26.6 °F 15.2 °F 21.2 °F 80% 30.16 in 9.0 mi SSE 13.8 mph - N/A   Overcast
7:00 AM 26.6 °F 14.7 °F 21.2 °F 80% 30.14 in 9.0 mi SSE 15.0 mph - N/A   Overcast
8:00 AM 19 °F - 9 °F 52% 29.62 in - NW 15.0 mph - -  
8:00 AM 28.4 °F 17.0 °F 21.2 °F 74% 30.13 in 9.0 mi SSE 15.0 mph - N/A   Mostly Cloudy
9:00 AM 30.2 °F 19.8 °F 23.0 °F 75% 30.11 in 9.0 mi South 13.8 mph 21.9 mph N/A   Overcast
10:00 AM 33.8 °F 23.5 °F 21.2 °F 60% 30.09 in 9.0 mi South 16.1 mph 26.5 mph N/A   Partly Cloudy
11:00 AM 35.6 °F 24.8 °F 21.2 °F 56% 30.07 in 9.0 mi South 19.6 mph 26.5 mph N/A   Mostly Cloudy
11:11 AM 35.6 °F 25.9 °F 23.0 °F 60% 30.07 in 9.0 mi South 16.1 mph 25.3 mph N/A Rain Light Rain
12:00 PM 33.8 °F 23.9 °F 24.8 °F 70% 30.05 in 9.0 mi South 15.0 mph 26.5 mph N/A Rain Light Rain
12:03 PM 33.8 °F 23.2 °F 24.8 °F 70% 30.05 in 9.0 mi South 17.3 mph 26.5 mph N/A Rain , Snow Light Snow
12:09 PM 33.8 °F 23.2 °F 24.8 °F 70% 30.05 in 7.0 mi South 17.3 mph 24.2 mph N/A Snow Light Snow
12:20 PM 33.8 °F 22.2 °F 26.6 °F 75% 30.05 in 5.0 mi South 20.7 mph 26.5 mph N/A Snow Light Snow
12:29 PM 32.0 °F 20.5 °F 26.6 °F 80% 30.04 in 2.5 mi South 18.4 mph 27.6 mph N/A Snow Light Snow
12:33 PM 32.0 °F 20.1 °F 28.4 °F 87% 30.03 in 3.0 mi South 19.6 mph 27.6 mph N/A Snow Light Snow
12:39 PM 32.0 °F 20.8 °F 28.4 °F 87% 30.03 in 7.0 mi South 17.3 mph 24.2 mph N/A Rain , Snow Light Snow
12:45 PM 32.0 °F 20.8 °F 28.4 °F 87% 30.02 in 9.0 mi South 17.3 mph 23.0 mph N/A Rain Light Rain
1:00 PM 32.0 °F 20.5 °F 28.4 °F 87% 30.02 in 9.0 mi South 18.4 mph 25.3 mph N/A Rain Light Rain
1:42 PM 32.0 °F 20.8 °F 28.4 °F 87% 30.02 in 5.0 mi South 17.3 mph 24.2 mph N/A Rain Light Rain
1:43 PM 32.0 °F 20.5 °F 28.4 °F 87% 30.02 in 4.0 mi South 18.4 mph 24.2 mph N/A Rain , Snow Light Snow
1:49 PM 32.0 °F 21.2 °F 28.4 °F 87% 30.02 in 2.2 mi South 16.1 mph 23.0 mph N/A Snow Light Snow
2:00 PM 27 °F - -6 °F 11% 29.85 in - NW 12.7 mph - -  
2:00 PM 32.0 °F 22.1 °F 30.2 °F 93% 30.02 in 2.0 mi South 13.8 mph 23.0 mph N/A Snow Light Snow
2:11 PM 32.0 °F 22.1 °F 30.2 °F 93% 30.01 in 3.0 mi South 13.8 mph 23.0 mph N/A Snow Light Snow
2:25 PM 32.0 °F 20.8 °F 30.2 °F 93% 30.00 in 6.0 mi South 17.3 mph 23.0 mph N/A Snow Light Snow
2:26 PM 32.0 °F 21.2 °F 30.2 °F 93% 30.00 in 6.0 mi South 16.1 mph 23.0 mph N/A Snow Light Snow
2:40 PM 32.0 °F 20.5 °F 30.2 °F 93% 29.99 in 9.0 mi South 18.4 mph - N/A Rain , Snow Light Snow
2:44 PM 32.0 °F 22.1 °F 30.2 °F 93% 29.99 in 9.0 mi South 13.8 mph 23.0 mph N/A Rain Light Rain
2:55 PM 32.0 °F 20.8 °F 30.2 °F 93% 29.98 in 7.0 mi South 17.3 mph - N/A Rain , Snow Light Snow
2:59 PM 32.0 °F 21.2 °F 30.2 °F 93% 29.97 in 7.0 mi South 16.1 mph 24.2 mph N/A Snow Light Snow
3:00 PM 33.8 °F 23.5 °F 30.2 °F 87% 29.98 in 7.0 mi South 16.1 mph 24.2 mph N/A Snow Light Snow
3:11 PM 33.8 °F 23.5 °F 30.2 °F 87% 29.97 in 6.0 mi South 16.1 mph 23.0 mph N/A Snow Light Snow
3:25 PM 33.8 °F 23.9 °F 30.2 °F 87% 29.95 in 9.0 mi South 15.0 mph 24.2 mph N/A Snow Light Snow
3:29 PM 33.8 °F 22.8 °F 30.2 °F 87% 29.95 in 9.0 mi South 18.4 mph 24.2 mph N/A Rain , Snow Light Snow
3:31 PM 33.8 °F 23.5 °F 30.2 °F 87% 29.95 in 9.0 mi South 16.1 mph 24.2 mph N/A Rain Light Rain
3:35 PM 33.8 °F 23.5 °F 30.2 °F 87% 29.95 in 9.0 mi South 16.1 mph 24.2 mph N/A Rain Light Rain
4:00 PM 33.8 °F 23.9 °F 30.2 °F 87% 29.93 in 9.0 mi South 15.0 mph 21.9 mph N/A Rain Light Rain
4:46 PM 35.6 °F 25.9 °F 28.4 °F 75% 29.90 in 9.0 mi SSE 16.1 mph - N/A   Overcast
5:00 PM 35.6 °F 25.5 °F 28.4 °F 75% 29.89 in 9.0 mi South 17.3 mph 23.0 mph N/A   Overcast
6:00 PM 37.4 °F 27.2 °F 26.6 °F 65% 29.88 in 9.0 mi South 19.6 mph 27.6 mph N/A   Overcast
7:00 PM 37.4 °F 28.5 °F 30.2 °F 75% 29.86 in 9.0 mi South 15.0 mph 21.9 mph N/A   Overcast
7:40 PM 37.4 °F 29.8 °F 30.2 °F 75% 29.84 in 9.0 mi South 11.5 mph 18.4 mph N/A Rain Light Rain
8:00 PM 23 °F - -0 °F 22% 30.06 in - West 4.6 mph - -  
8:00 PM 35.6 °F 27.1 °F 30.2 °F 81% 29.83 in 8.0 mi South 12.7 mph - N/A Rain Light Rain
8:59 PM 35.6 °F 26.6 °F 32.0 °F 87% 29.81 in 9.0 mi SSE 13.8 mph 19.6 mph N/A   Overcast
9:00 PM 35.6 °F 26.6 °F 32.0 °F 87% 29.81 in 9.0 mi SSE 13.8 mph 19.6 mph N/A   Overcast
10:00 PM 35.6 °F 28.0 °F 33.8 °F 93% 29.79 in 9.0 mi SSE 10.4 mph - N/A   Overcast
11:00 PM 35.6 °F 27.5 °F 32.0 °F 87% 29.76 in 9.0 mi South 11.5 mph 18.4 mph N/A   Overcast
11:02 PM 37.4 °F 29.3 °F 32.0 °F 81% 29.76 in 9.0 mi South 12.7 mph 18.4 mph N/A Rain Light Rain
11:15 PM 37.4 °F 28.5 °F 32.0 °F 81% 29.75 in 9.0 mi SSE 15.0 mph - N/A   Overcast
11:31 PM 37.4 °F 27.5 °F 32.0 °F 81% 29.75 in 9.0 mi South 18.4 mph 24.2 mph N/A Rain Light Rain
11:46 PM 39.2 °F 29.8 °F 32.0 °F 75% 29.73 in 9.0 mi South 18.4 mph 25.3 mph N/A   Overcast
11:50 PM 39.2 °F 29.8 °F 32.0 °F 75% 29.73 in 9.0 mi South 18.4 mph 25.3 mph N/A Rain Light Rain